| time (UTC) | temp F | wind direction | speed MPH | gust MPH | rain 1hr in | rain 24hr in | rain mn in | humidity % | barometer mb |
| 20260510110020 | 46 | 360 | 0.0 | 0.0 | 0.00 | 0.00 | 0.00 | 50 | 1019.7 |
| 20260510104514 | 46 | 360 | 0.0 | 0.0 | 0.00 | 0.00 | 0.00 | 50 | 1019.6 |
| 20260510103013 | 47 | 360 | 0.0 | 0.0 | 0.00 | 0.00 | 0.00 | 45 | 1019.6 |
| 20260510101513 | 47 | 360 | 0.0 | 0.0 | 0.00 | 0.00 | 0.00 | 49 | 1019.5 |
| 20260510100059 | 46 | 360 | 0.0 | 0.0 | 0.00 | 0.00 | 0.00 | 43 | 1019.5 |
| 20260510094552 | 46 | 360 | 0.0 | 0.0 | 0.00 | 0.00 | 0.00 | 52 | 1019.4 |
| 20260510093036 | 46 | 360 | 0.0 | 0.0 | 0.00 | 0.00 | 0.00 | 48 | 1019.3 |
| 20260510091534 | 47 | 360 | 0.0 | 0.0 | 0.00 | 0.00 | 0.00 | 46 | 1019.2 |
| 20260510090032 | 47 | 360 | 0.0 | 0.0 | 0.00 | 0.00 | 0.00 | 48 | 1019.0 |
| 20260510084529 | 47 | 360 | 0.0 | 0.0 | 0.00 | 0.00 | 0.00 | 49 | 1018.9 |
| 20260510083027 | 48 | 360 | 0.0 | 0.0 | 0.00 | 0.00 | 0.00 | 46 | 1018.7 |
| 20260510080023 | 49 | 360 | 0.0 | 0.0 | 0.00 | 0.00 | 0.00 | 43 | 1018.5 |
| 20260510074521 | 50 | 360 | 0.0 | 0.0 | 0.00 | 0.00 | 0.00 | 45 | 1018.5 |
| 20260510073018 | 50 | 360 | 0.0 | 0.0 | 0.00 | 0.00 | 0.00 | 48 | 1018.4 |
| 20260510070016 | 51 | 360 | 0.0 | 0.0 | 0.00 | 0.00 | 0.00 | 38 | 1018.1 |
| 20260510064513 | 51 | 360 | 0.0 | 0.0 | 0.00 | 0.00 | 0.00 | 36 | 1017.9 |
| 20260510063013 | 52 | 360 | 0.0 | 0.0 | 0.00 | 0.00 | 0.00 | 36 | 1017.6 |
| 20260510060059 | 52 | 360 | 0.0 | 0.0 | 0.00 | 0.00 | 0.00 | 35 | 1017.2 |
| 20260510054558 | 53 | 360 | 0.0 | 0.0 | 0.00 | 0.00 | 0.00 | 35 | 1017.1 |
| 20260510053058 | 53 | 360 | 0.0 | 0.0 | 0.00 | 0.00 | 0.00 | 33 | 1017.0 |
| 20260510051633 | 54 | 360 | 0.0 | 0.0 | 0.00 | 0.00 | 0.00 | 32 | 1016.9 |
| 20260510050051 | 55 | 360 | 0.0 | 0.0 | 0.00 | 0.00 | 0.00 | 30 | 1017.0 |
| 20260510044553 | 55 | 360 | 0.0 | 0.0 | 0.00 | 0.00 | 0.00 | 29 | 1016.8 |
| 20260510043132 | 56 | 360 | 0.0 | 0.0 | 0.00 | 0.00 | 0.00 | 31 | 1016.7 |
| 20260510041553 | 57 | 360 | 0.0 | 0.0 | 0.00 | 0.00 | 0.00 | 26 | 1016.7 |
| 20260510040036 | 58 | 360 | 0.0 | 0.0 | 0.00 | 0.00 | 0.00 | 28 | 1016.6 |
| 20260510034539 | 59 | 360 | 0.0 | 0.0 | 0.00 | 0.00 | 0.00 | 24 | 1016.5 |
| 20260510033036 | 60 | 360 | 0.0 | 0.0 | 0.00 | 0.00 | 0.00 | 23 | 1016.2 |
| 20260510031600 | 61 | 360 | 0.0 | 0.0 | 0.00 | 0.00 | 0.00 | 20 | 1015.9 |
| 20260510030037 | 63 | 360 | 0.0 | 0.0 | 0.00 | 0.00 | 0.00 | 20 | 1015.6 |
| 20260510024537 | 65 | 360 | 0.0 | 0.0 | 0.00 | 0.00 | 0.00 | 19 | 1015.4 |
| 20260510023043 | 67 | 360 | 0.0 | 0.0 | 0.00 | 0.00 | 0.00 | 15 | 1015.3 |
| 20260510021532 | 68 | 22 | 0.0 | 0.0 | 0.00 | 0.00 | 0.00 | 14 | 1015.1 |
| 20260510020018 | 69 | 13 | 0.0 | 0.0 | 0.00 | 0.00 | 0.00 | 15 | 1015.1 |
| 20260510014520 | 70 | 35 | 0.0 | 0.0 | 0.00 | 0.00 | 0.00 | 12 | 1015.0 |
| 20260510013018 | 71 | 314 | 0.0 | 0.0 | 0.00 | 0.00 | 0.00 | 14 | 1015.1 |
| 20260510011523 | 71 | 312 | 0.0 | 0.0 | 0.00 | 0.00 | 0.00 | 12 | 1015.2 |
| 20260510010023 | 71 | 308 | 0.0 | 0.0 | 0.00 | 0.00 | 0.00 | 13 | 1015.1 |
| 20260510004516 | 72 | 355 | 1.0 | 0.0 | 0.00 | 0.00 | 0.00 | 14 | 1015.1 |
| 20260510003016 | 72 | 281 | 0.0 | 0.0 | 0.00 | 0.00 | 0.00 | 13 | 1015.2 |
| 20260510001517 | 72 | 321 | 0.0 | 0.0 | 0.00 | 0.00 | 0.00 | 14 | 1015.3 |
| 20260510000004 | 72 | 351 | 1.0 | 0.0 | 0.00 | 0.00 | 0.00 | 14 | 1015.2 |
| 20260509234503 | 72 | 51 | 2.0 | 0.0 | 0.00 | 0.00 | 0.00 | 14 | 1015.1 |
| 20260509233004 | 74 | 32 | 0.0 | 0.0 | 0.00 | 0.00 | 0.00 | 14 | 1015.1 |
| 20260509231501 | 74 | 141 | 1.0 | 0.0 | 0.00 | 0.00 | 0.00 | 13 | 1015.2 |
| 20260509230100 | 73 | 355 | 1.0 | 0.0 | 0.00 | 0.00 | 0.00 | 13 | 1015.2 |
| 20260509224616 | 73 | 57 | 1.0 | 0.0 | 0.00 | 0.00 | 0.00 | 15 | 1015.0 |
| 20260509223059 | 73 | 70 | 2.0 | 0.0 | 0.00 | 0.00 | 0.00 | 16 | 1015.0 |
| 20260509221558 | 73 | 26 | 2.0 | 0.0 | 0.00 | 0.00 | 0.00 | 18 | 1015.0 |
| 20260509220047 | 73 | 291 | 1.0 | 0.0 | 0.00 | 0.00 | 0.00 | 17 | 1015.1 |
| 20260509214543 | 73 | 332 | 1.0 | 0.0 | 0.00 | 0.00 | 0.00 | 17 | 1015.4 |
| 20260509213057 | 72 | 337 | 0.0 | 0.0 | 0.00 | 0.00 | 0.00 | 17 | 1015.5 |
| 20260509211606 | 72 | 355 | 1.0 | 0.0 | 0.00 | 0.00 | 0.00 | 18 | 1015.5 |
| 20260509210040 | 72 | 38 | 1.0 | 0.0 | 0.00 | 0.00 | 0.00 | 21 | 1015.5 |
| 20260509204551 | 71 | 333 | 2.0 | 0.0 | 0.00 | 0.00 | 0.00 | 17 | 1015.7 |
| 20260509203042 | 71 | 34 | 1.0 | 0.0 | 0.00 | 0.00 | 0.00 | 18 | 1015.7 |
| 20260509201535 | 70 | 78 | 2.0 | 0.0 | 0.00 | 0.00 | 0.00 | 18 | 1015.7 |
| 20260509200023 | 70 | 53 | 2.0 | 0.0 | 0.00 | 0.00 | 0.00 | 19 | 1015.7 |
| 20260509194518 | 69 | 344 | 2.0 | 0.0 | 0.00 | 0.00 | 0.00 | 20 | 1015.9 |
| 20260509193016 | 68 | 5 | 3.0 | 0.0 | 0.00 | 0.00 | 0.00 | 18 | 1016.0 |
| 20260509191513 | 67 | 26 | 2.0 | 0.0 | 0.00 | 0.00 | 0.00 | 19 | 1016.1 |
| 20260509190016 | 67 | 5 | 3.0 | 0.0 | 0.00 | 0.00 | 0.00 | 16 | 1016.2 |
| 20260509184511 | 67 | 336 | 3.0 | 0.0 | 0.00 | 0.00 | 0.00 | 16 | 1016.3 |
| 20260509183018 | 67 | 56 | 3.0 | 0.0 | 0.00 | 0.00 | 0.00 | 18 | 1016.3 |
| 20260509181509 | 66 | 30 | 3.0 | 0.0 | 0.00 | 0.00 | 0.00 | 19 | 1016.3 |
| 20260509180050 | 65 | 65 | 4.0 | 0.0 | 0.00 | 0.00 | 0.00 | 18 | 1016.2 |
| 20260509174552 | 65 | 325 | 3.0 | 0.0 | 0.00 | 0.00 | 0.00 | 17 | 1016.2 |
| 20260509173030 | 65 | 17 | 3.0 | 0.0 | 0.00 | 0.00 | 0.00 | 16 | 1016.0 |
| 20260509171529 | 64 | 87 | 3.0 | 0.0 | 0.00 | 0.00 | 0.00 | 15 | 1016.0 |
| 20260509170016 | 65 | 35 | 2.0 | 0.0 | 0.00 | 0.00 | 0.00 | 14 | 1016.0 |
| 20260509164515 | 65 | 78 | 2.0 | 0.0 | 0.00 | 0.00 | 0.00 | 15 | 1016.0 |
| 20260509163013 | 64 | 36 | 2.0 | 0.0 | 0.00 | 0.00 | 0.00 | 15 | 1016.1 |
| 20260509161514 | 63 | 22 | 1.0 | 0.0 | 0.00 | 0.00 | 0.00 | 16 | 1016.2 |
| 20260509160011 | 64 | 342 | 1.0 | 0.0 | 0.00 | 0.00 | 0.00 | 15 | 1016.2 |
| 20260509154509 | 63 | 29 | 1.0 | 0.0 | 0.00 | 0.00 | 0.00 | 18 | 1016.1 |
| 20260509153016 | 63 | 280 | 1.0 | 0.0 | 0.00 | 0.00 | 0.00 | 17 | 1016.1 |
| 20260509151504 | 62 | 267 | 1.0 | 0.0 | 0.00 | 0.00 | 0.00 | 20 | 1016.1 |
| 20260509150049 | 60 | 304 | 1.0 | 0.0 | 0.00 | 0.00 | 0.00 | 27 | 1016.0 |
| 20260509144546 | 56 | 5 | 0.0 | 0.0 | 0.00 | 0.00 | 0.00 | 28 | 1016.0 |
| 20260509143050 | 55 | 347 | 0.0 | 0.0 | 0.00 | 0.00 | 0.00 | 44 | 1016.0 |
| 20260509141546 | 54 | 347 | 0.0 | 0.0 | 0.00 | 0.00 | 0.00 | 48 | 1015.9 |
| 20260509140048 | 53 | 336 | 0.0 | 0.0 | 0.00 | 0.00 | 0.00 | 44 | 1015.8 |
| 20260509134551 | 52 | 335 | 0.0 | 0.0 | 0.00 | 0.00 | 0.00 | 49 | 1015.7 |
| 20260509133046 | 52 | 335 | 0.0 | 0.0 | 0.00 | 0.00 | 0.00 | 49 | 1015.4 |
| 20260509131536 | 53 | 335 | 0.0 | 0.0 | 0.00 | 0.00 | 0.00 | 45 | 1015.2 |
| 20260509130023 | 53 | 335 | 0.0 | 0.0 | 0.00 | 0.00 | 0.00 | 45 | 1015.1 |
| 20260509124522 | 54 | 334 | 0.0 | 0.0 | 0.00 | 0.00 | 0.00 | 42 | 1014.8 |
| 20260509123018 | 54 | 360 | 0.0 | 0.0 | 0.00 | 0.00 | 0.00 | 42 | 1014.5 |
| 20260509121516 | 55 | 345 | 1.0 | 0.0 | 0.00 | 0.00 | 0.00 | 42 | 1014.4 |
| 20260509120016 | 55 | 5 | 2.0 | 0.0 | 0.00 | 0.00 | 0.00 | 41 | 1014.1 |
| 20260509114512 | 55 | 10 | 2.0 | 0.0 | 0.00 | 0.00 | 0.00 | 42 | 1014.0 |
| 20260509113013 | 55 | 355 | 2.0 | 0.0 | 0.00 | 0.00 | 0.00 | 43 | 1013.9 |
| 20260509111509 | 56 | 320 | 1.0 | 0.0 | 0.00 | 0.00 | 0.00 | 42 | 1013.9 |